Hot Springs, VA

7:11 AM EDT on August 24, 2016 (GMT -0400)
Ingalls

Weather History for KHSP - January, 2011

Change the Weather History Date:

Monday, January 10, 2011

  Actual Average Record
Temperature  
Mean Temperature 18 °F -  
Max Temperature 26 °F 33 °F 53 °F (2013)
Min Temperature 10 °F 19 °F 1 °F (2015)
Degree Days  
Heating Degree Days 47    
Moisture  
Dew Point 6 °F    
Average Humidity 59    
Maximum Humidity 85    
Minimum Humidity 43    
Precipitation  
Precipitation 0.00 in - - ()
Sea Level Pressure  
Sea Level Pressure 30.15 in    
Wind  
Wind Speed 7 mph (NE)    
Max Wind Speed 17 mph    
Max Gust Speed 21 mph    
Visibility 10 miles    
Events      
Averages and records for this station are not official NWS values.
T = Trace of Precipitation, MM = Missing Value Source: NWS Daily Summary

Daily Weather History Graph

Daily Weather History Graph

Search for Another Location

Airport or City:

Trip Planner

Search our weather history database for the weather conditions in past years. The results will help you decide how hot, cold, wet, or windy it might be!

Date:

Astronomy

Jan. 10, 2011 Rise Set
Actual Time 7:35 AM EST 5:18 PM EST
Civil Twilight 7:06 AM EST 5:47 PM EST
Nautical Twilight 6:33 AM EST 6:20 PM EST
Astronomical Twilight 6:01 AM EST 6:51 PM EST
Moon 10:37 AM EST (1/10) 11:36 PM EST (1/10)
Length of Visible Light 10h 41m
Length of Day
9h 43m
Waxing Crescent, 34% of the Moon is Illuminated
Jan 10
Waxing Crescent
Jan 12
First Quarter
Jan 19
Full
Jan 26
Last Quarter
Feb 2
New

Hourly Weather History & Observations

Time (EST) Temp. Windchill Dew Point Humidity Pressure Visibility Wind Dir Wind Speed Gust Speed Precip Events Conditions
12:00 AM 12.2 °F -2.5 °F 6.8 °F 79% 30.14 in 10.0 mi WNW 12.7 mph 20.7 mph N/A   Clear
12:20 AM 10.4 °F -3.3 °F 6.8 °F 85% 30.14 in 10.0 mi WNW 10.4 mph - N/A   Clear
12:40 AM 10.4 °F -5.4 °F 6.8 °F 85% 30.14 in 10.0 mi WNW 13.8 mph - N/A   Clear
1:00 AM 10.4 °F -7.2 °F 6.8 °F 85% 30.13 in 10.0 mi NW 17.3 mph - N/A   Clear
1:20 AM 10.4 °F -0.4 °F 6.8 °F 85% 30.13 in 10.0 mi WNW 6.9 mph - N/A   Clear
1:40 AM 10.4 °F -3.3 °F 6.8 °F 85% 30.13 in 10.0 mi NW 10.4 mph - N/A   Clear
2:00 AM 10.4 °F 0.8 °F 6.8 °F 85% 30.14 in 10.0 mi NNW 5.8 mph - N/A   Clear
2:20 AM 14.0 °F 0.5 °F 6.8 °F 73% 30.14 in 10.0 mi NW 11.5 mph - N/A   Clear
2:40 AM 14.0 °F 3.9 °F 5.0 °F 67% 30.15 in 10.0 mi North 6.9 mph - N/A   Clear
3:20 AM 15.8 °F 3.4 °F 3.2 °F 58% 30.14 in 10.0 mi North 10.4 mph - N/A   Clear
3:40 AM 15.8 °F 6.1 °F 3.2 °F 58% 30.14 in 10.0 mi North 6.9 mph - N/A   Clear
4:00 AM 15.8 °F 10.2 °F 3.2 °F 58% 30.16 in 10.0 mi NW 3.5 mph - N/A   Clear
4:20 AM 12.2 °F 1.7 °F 6.8 °F 79% 30.17 in 10.0 mi WNW 6.9 mph - N/A   Clear
4:40 AM 12.2 °F 4.3 °F 6.8 °F 79% 30.16 in 10.0 mi NW 4.6 mph - N/A   Clear
5:00 AM 12.2 °F 4.3 °F 6.8 °F 79% 30.15 in 10.0 mi NNW 4.6 mph - N/A   Scattered Clouds
5:20 AM 15.8 °F 8.6 °F 3.2 °F 58% 30.14 in 10.0 mi North 4.6 mph - N/A   Clear
5:40 AM 15.8 °F 8.6 °F 3.2 °F 58% 30.14 in 10.0 mi NE 4.6 mph - N/A   Clear
6:00 AM 15.8 °F 10.2 °F 3.2 °F 58% 30.14 in 10.0 mi North 3.5 mph - N/A   Clear
6:20 AM 17.6 °F 9.3 °F 1.4 °F 49% 30.14 in 10.0 mi NNE 5.8 mph - N/A   Scattered Clouds
6:40 AM 17.6 °F 10.7 °F 1.4 °F 49% 30.15 in 10.0 mi NNE 4.6 mph - N/A   Scattered Clouds
7:00 AM 17.6 °F 8.2 °F -0.4 °F 45% 30.15 in 10.0 mi NNE 6.9 mph - N/A   Mostly Cloudy
7:20 AM 17.6 °F 9.3 °F 1.4 °F 49% 30.15 in 10.0 mi NE 5.8 mph - N/A   Mostly Cloudy
7:40 AM 17.6 °F 10.7 °F -0.4 °F 45% 30.16 in 10.0 mi NE 4.6 mph - N/A   Mostly Cloudy
8:00 AM 17.6 °F - 1.4 °F 49% 30.18 in 10.0 mi Calm Calm - N/A   Overcast
8:20 AM 19.4 °F 14.3 °F 1.4 °F 46% 30.19 in 10.0 mi ESE 3.5 mph - N/A   Mostly Cloudy
8:40 AM 19.4 °F 12.8 °F 1.4 °F 46% 30.19 in 10.0 mi East 4.6 mph - N/A   Overcast
9:00 AM 19.4 °F 11.5 °F 1.4 °F 46% 30.19 in 10.0 mi East 5.8 mph - N/A   Overcast
9:20 AM 19.4 °F 12.8 °F 1.4 °F 46% 30.20 in 10.0 mi East 4.6 mph - N/A   Overcast
9:40 AM 19.4 °F 12.8 °F 3.2 °F 49% 30.20 in 10.0 mi East 4.6 mph - N/A   Overcast
10:00 AM 17.6 °F 9.3 °F 3.2 °F 53% 30.20 in 10.0 mi ENE 5.8 mph - N/A   Overcast
10:20 AM 17.6 °F 9.3 °F 5.0 °F 58% 30.20 in 10.0 mi East 5.8 mph - N/A   Overcast
10:40 AM 17.6 °F 6.4 °F 3.2 °F 53% 30.20 in 10.0 mi ENE 9.2 mph - N/A   Overcast
11:00 AM 17.6 °F 10.7 °F 5.0 °F 58% 30.20 in 10.0 mi ENE 4.6 mph - N/A   Overcast
11:20 AM 17.6 °F 12.3 °F 6.8 °F 63% 30.19 in 10.0 mi East 3.5 mph - N/A   Overcast
11:40 AM 19.4 °F 14.3 °F 6.8 °F 58% 30.17 in 10.0 mi East 3.5 mph - N/A   Overcast
12:00 PM 19.4 °F 12.8 °F 6.8 °F 58% 30.16 in 10.0 mi East 4.6 mph - N/A   Overcast
12:20 PM 19.4 °F 12.8 °F 8.6 °F 63% 30.15 in 10.0 mi East 4.6 mph - N/A   Overcast
12:40 PM 21.2 °F 14.9 °F 5.0 °F 50% 30.14 in 10.0 mi East 4.6 mph - N/A   Overcast
1:00 PM 23.0 °F 18.4 °F 3.2 °F 43% 30.13 in 10.0 mi ENE 3.5 mph - N/A   Overcast
1:20 PM 24.8 °F 20.5 °F 8.6 °F 50% 30.12 in 10.0 mi East 3.5 mph - N/A   Overcast
1:40 PM 24.8 °F - 10.4 °F 54% 30.11 in 10.0 mi Calm Calm - N/A   Scattered Clouds
2:00 PM 24.8 °F - 8.6 °F 50% 30.10 in 10.0 mi Calm Calm - N/A   Scattered Clouds
2:20 PM 26.6 °F 21.2 °F 10.4 °F 51% 30.11 in 10.0 mi ESE 4.6 mph - N/A   Scattered Clouds
2:40 PM 24.8 °F - 8.6 °F 50% 30.11 in 10.0 mi Calm Calm - N/A   Mostly Cloudy
3:00 PM 24.8 °F 20.5 °F 10.4 °F 54% 30.11 in 10.0 mi ENE 3.5 mph - N/A   Overcast
3:20 PM 24.8 °F 20.5 °F 8.6 °F 50% 30.13 in 10.0 mi ENE 3.5 mph - N/A   Overcast
3:40 PM 24.8 °F - 8.6 °F 50% 30.13 in 10.0 mi Calm Calm - N/A   Overcast
4:00 PM 24.8 °F - 10.4 °F 54% 30.13 in 10.0 mi Calm Calm - N/A   Overcast
4:20 PM 23.0 °F 18.4 °F 10.4 °F 59% 30.13 in 10.0 mi ENE 3.5 mph - N/A   Overcast
4:40 PM 23.0 °F 18.4 °F 10.4 °F 59% 30.13 in 10.0 mi East 3.5 mph - N/A   Overcast
5:00 PM 23.0 °F 18.4 °F 10.4 °F 59% 30.13 in 10.0 mi East 3.5 mph - N/A   Overcast
5:20 PM 23.0 °F - 8.6 °F 54% 30.13 in 10.0 mi Calm Calm - N/A   Overcast
5:40 PM 23.0 °F - 8.6 °F 54% 30.13 in 10.0 mi Calm Calm - N/A   Overcast
6:00 PM 23.0 °F 17.0 °F 8.6 °F 54% 30.13 in 10.0 mi East 4.6 mph - N/A   Overcast
6:22 PM 23.0 °F 15.8 °F 8.6 °F 54% 30.13 in 10.0 mi East 5.8 mph - N/A   Overcast
6:40 PM 21.2 °F 12.6 °F 10.4 °F 63% 30.12 in 10.0 mi ENE 6.9 mph - N/A   Overcast
7:00 PM 21.2 °F 12.6 °F 8.6 °F 58% 30.12 in 10.0 mi East 6.9 mph - N/A   Overcast
7:20 PM 21.2 °F 13.6 °F 8.6 °F 58% 30.12 in 10.0 mi East 5.8 mph - N/A   Overcast
7:40 PM 21.2 °F 13.6 °F 10.4 °F 63% 30.12 in 10.0 mi East 5.8 mph - N/A   Overcast
8:00 PM 21.2 °F 12.6 °F 8.6 °F 58% 30.12 in 10.0 mi East 6.9 mph - N/A   Overcast
8:20 PM 21.2 °F 13.6 °F 8.6 °F 58% 30.12 in 10.0 mi East 5.8 mph - N/A   Overcast
8:40 PM 21.2 °F 12.6 °F 10.4 °F 63% 30.11 in 10.0 mi East 6.9 mph - N/A   Overcast
9:00 PM 21.2 °F 13.6 °F 10.4 °F 63% 30.12 in 10.0 mi East 5.8 mph - N/A   Overcast
9:20 PM 21.2 °F 13.6 °F 10.4 °F 63% 30.12 in 10.0 mi ESE 5.8 mph - N/A   Overcast
9:40 PM 21.2 °F 12.6 °F 10.4 °F 63% 30.11 in 10.0 mi East 6.9 mph - N/A   Overcast
10:00 PM 21.2 °F 13.6 °F 12.2 °F 68% 30.11 in 10.0 mi East 5.8 mph - N/A   Overcast
10:20 PM 21.2 °F 12.6 °F 12.2 °F 68% 30.10 in 10.0 mi ESE 6.9 mph - N/A   Overcast
10:40 PM 19.4 °F 11.5 °F 12.2 °F 74% 30.10 in 10.0 mi East 5.8 mph - N/A   Overcast
11:00 PM 19.4 °F 12.8 °F 12.2 °F 74% 30.10 in 10.0 mi ESE 4.6 mph - N/A   Overcast
11:20 PM 19.4 °F 12.8 °F 12.2 °F 74% 30.09 in 10.0 mi East 4.6 mph - N/A   Overcast
11:40 PM 19.4 °F 11.5 °F 14.0 °F 80% 30.09 in 10.0 mi ESE 5.8 mph - N/A   Overcast